Presure
147 130 156 141 148 140 147 148 145 144 152 128 119 154 137 141 143 137 153 150 124 130 136 131 146 154 134 165 140 145 153 144 153 134 145 136 163 183 165 210 413 371 364
127 158 133 122 118 124 124 126 126 126 132 152 142 134 195 120 140 150 156 145 145 148 160 143 126 131 158 159 131 125 139 155 146 145 149 145 157 174 171 331 417 358 348
125 111 127 118 134 142 119 131 127 130 132 128 133 125 133 131 140 139 156 149 135 145 166 157 148 168 139 142 124 144 144 137 155 153 168 141 139 153 175 286 413 359 332
170 147 114 141 137 145 115 115 138 173 137 134 130 134 136 138 130 133 148 196 136 143 129 135 153 164 135 140 137 150 135 157 152 121 146 180 144 181 157 316 397 358 335
171 143 140 136 138 134 116 121 140 133 122 125 139 141 125 146 155 190 141 146 143 137 162 157 144 139 127 150 168 122 132 135 153 162 166 168 157 162 141 192 245 235 352
191 178 172 185 183 176 189 123 172 190 184 133 133 186 191 135 150 133 121 127 127 125 136 119 130 139 128 135 112 180 141 213 143 176 169 152 131 141 165 282 377 180 346
177 183 192 188 189 186 185 185 187 185 179 185 189 175 169 171 171 165 167 168 168 172 118 129 150 128 143 130 116 173 166 126 141 151 175 182 175 144 150 148 337 178 243
172 173 185 177 176 189 189 191 182 182 182 179 178 181 182 186 181 183 181 175 177 178 184 200 200 196 125 202 204 206 124 193 142 205 198 206 205 151 150 156 204 249 172
170 164 171 184 182 176 175 172 172 172 171 172 172 176 178 172 177 186 184 185 185 189 185 185 190 188 188 188 185 189 185 211 217 211 152 150 144 159 155 159 179 212 201
183 174 170 162 158 158 159 161 163 163 164 162 161 163 164 168 179 173 172 179 174 178 173 173 173 177 176 183 186 183 180 181 198 179 203 195 161 153 158 149 158 164 193
159 146 184 179 170 161 162 157 159 159 160 167 155 154 157 163 175 169 186 177 171 174 175 173 173 175 178 178 179 177 173 178 166 195 186 185 151 149 161 145 144 150 159
174 166 166 180 182 147 147 158 171 171 161 161 163 163 161 169 167 191 195 190 174 175 166 159 168 136 167 168 179 179 179 175 171 179 187 184 161 136 154 152 141 145 163
171 171 171 168 171 169 174 173 165 180 158 153 158 169 192 189 191 195 200 202 192 191 191 184 201 203 172 176 177 176 170 176 184 170 174 178 168 131 139 157 147 157 168
169 219 178 175 166 169 177 175 179 181 172 158 189 180 180 181 187 188 183 181 185 186 184 184 182 178 174 187 194 183 166 173 178 174 171 171 179 188 189 163 135 149 141
163 148 154 202 146 152 159 168 149 160 171 172 157 175 168 179 187 191 171 179 166 171 172 170 169 172 180 179 185 188 194 191 173 174 174 168 172 180 120 173 135 166 145
166 158 151 153 153 163 174 133 156 168 161 163 172 173 176 171 160 155 171 168 169 158 156 196 184 202 221 172 215 215 246 182 190 191 172 176 170 171 176 196 150 133 159
148 155 142 155 154 156 169 138 151 180 159 154 164 173 167 186 175 177 164 170 183 212 118 203 196 210 224 239 166 225 238 306 259 265 193 177 181 175 177 171 135 145 146
147 150 151 152 165 154 167 182 180 127 183 137 163 189 194 193 217 178 226 202 211 203 183 186 218 203 201 250 282 252 257 303 318 175 247 193 182 170 177 177 173 139 196
157 142 156 132 161 166 166 166 149 167 180 182 162 183 214 172 185 196 200 191 201 180 142 196 184 182 214 243 202 171 230 287 286 249 274 179 179 179 180 174 169 175 158
128 128 128 128 129 170 128 142 144 158 152 146 160 162 172 162 162 199 201 173 208 175 182 220 212 182 209 256 245 203 268 265 279 280 286 249 239 170 176 172 176 136 146
184 160 153 178 188 171 150 167 143 137 177 161 162 184 191 166 186 210 174 160 191 191 227 196 215 190 234 239 225 269 261 256 272 275 266 241 200 131 141 176 187 198 174
158 140 119 130 129 127 136 141 163 147 158 149 172 148 188 152 168 166 184 198 167 189 182 214 196 219 201 202 222 235 257 250 272 262 289 245 150 228 228 199 127 200 191
216 147 156 138 177 179 156 169 174 175 157 179 184 187 162 161 158 198 199 185 182 207 209 228 221 199 155 267 236 262 255 255 248 264 274 254 133 225 216 207 196 185 223
133 250 223 205 183 121 183 157 181 167 156 161 178 172 174 171 182 202 175 183 205 217 228 233 226 188 257 229 264 241 257 258 252 276 255 277 226 215 225 233 236 198 193
247 239 242 240 247 207 199 189 152 192 189 193 190 176 187 191 208 205 202 210 207 185 204 176 223 203 255 254 256 257 260 244 256 281 253 268 248 213 208 224 234 222 200
227 241 245 246 250 245 250 188 204 203 203 204 196 194 197 189 177 212 199 198 194 220 229 223 210 248 266 246 249 254 264 271 277 279 278 257 265 251 213 211 226 240 217
Wind_Speed
45 39 50 40 51 41 44 44 42 42 46 30 23 50 38 41 40 35 47 44 28 30 35 35 38 49 25 55 36 43 59 49 57 42 51 32 66 79 74 100 15 19 22
44 50 44 30 28 32 31 33 31 30 36 55 45 35 48 27 41 45 48 39 36 41 45 39 28 27 47 51 25 26 37 59 48 49 52 51 58 72 73 59 9 15 31
47 27 46 36 48 52 31 44 37 41 43 37 40 32 38 37 42 42 54 48 35 43 53 46 41 46 40 41 20 49 43 36 52 47 50 31 36 50 70 69 18 15 33
58 59 38 55 55 54 35 33 52 56 51 47 43 47 48 47 35 38 50 41 35 45 29 33 43 46 28 34 32 49 28 49 47 11 43 66 40 68 55 44 18 21 26
51 63 62 60 59 53 43 50 54 59 41 43 56 39 35 55 39 44 44 49 46 40 46 54 45 36 25 47 38 20 19 29 42 49 48 50 52 55 32 76 45 38 22
46 48 52 49 47 48 47 56 49 49 48 60 58 43 43 52 48 48 32 39 37 29 41 19 27 31 26 34 17 48 28 41 35 52 43 38 20 35 47 48 32 56 41
46 45 45 46 46 45 45 47 46 46 48 48 46 45 46 46 45 48 48 47 46 45 21 35 48 26 48 29 19 45 49 19 32 37 36 37 44 27 41 27 39 48 34
51 50 46 45 43 43 42 43 43 44 45 46 45 45 45 46 48 51 51 48 50 52 54 45 42 42 27 39 35 34 17 33 20 26 32 35 36 29 31 38 33 25 28
53 53 48 45 43 41 40 41 42 43 44 44 46 46 47 47 48 50 50 51 51 48 47 45 43 41 37 37 35 31 31 26 21 22 14 19 22 18 23 29 35 24 31
52 49 46 45 45 44 46 47 47 47 48 48 48 49 50 50 52 51 50 51 49 46 48 46 45 43 40 36 32 30 26 25 20 23 19 18 7 13 14 18 28 25 23
52 49 50 49 50 51 52 53 54 53 52 52 51 50 51 53 54 54 54 54 51 50 47 47 45 44 42 40 36 29 25 23 19 19 14 14 11 10 5 11 13 16 19
49 52 51 51 52 51 50 56 58 59 57 59 58 57 54 55 56 53 54 52 54 53 44 39 43 31 41 41 37 34 27 23 24 19 16 14 14 15 2 4 10 8 12
46 50 53 54 53 57 57 57 53 54 57 56 55 57 55 54 55 54 51 49 50 48 47 48 44 44 45 44 41 35 33 26 23 24 20 15 16 22 16 7 11 5 5
49 57 52 57 60 59 56 55 56 57 62 57 58 58 58 57 57 55 53 52 52 50 48 47 46 47 45 46 45 41 36 36 28 26 25 23 17 15 22 18 16 13 11
64 52 54 62 45 66 65 63 55 63 64 65 51 65 56 61 60 57 51 55 50 51 51 51 51 52 55 50 50 47 44 44 37 32 31 30 26 22 18 26 23 17 20
63 64 66 67 66 70 67 46 63 70 66 69 74 72 68 65 52 52 57 56 57 55 54 63 58 63 58 52 57 51 45 45 46 42 38 35 34 30 27 30 34 26 26
68 76 58 76 73 54 73 45 63 75 63 60 78 79 74 72 68 62 61 64 62 60 28 50 51 56 55 49 45 51 46 41 46 43 46 41 42 39 36 37 37 37 36
65 78 75 80 76 55 66 70 76 35 70 44 50 75 81 72 66 47 56 57 65 57 45 58 46 47 58 56 43 45 41 38 42 50 46 49 46 46 43 42 42 41 39
81 47 73 18 81 75 57 50 22 67 75 82 37 76 82 38 56 77 54 50 52 44 34 48 57 63 58 66 46 34 46 30 34 43 55 53 52 50 48 46 46 46 35
17 24 25 37 33 89 24 19 34 36 24 24 41 20 46 23 34 71 84 37 64 52 48 83 70 69 68 57 45 40 40 36 33 36 50 61 62 54 53 52 49 36 39
101 90 71 93 82 95 50 87 24 31 84 32 37 87 94 33 74 85 51 51 68 68 82 65 78 66 78 60 48 43 41 38 38 35 49 70 63 40 42 57 60 64 55
77 45 27 25 24 30 27 35 42 32 47 33 77 45 84 40 64 53 67 100 58 78 57 74 64 77 59 57 68 45 46 37 36 40 33 77 47 70 72 68 41 68 66
92 28 71 38 101 101 50 86 86 91 35 82 107 105 46 47 48 106 108 61 77 91 77 93 76 67 49 46 53 47 49 47 38 41 35 63 36 75 76 72 73 70 77
36 86 108 114 104 30 108 52 101 72 46 49 85 64 62 63 85 108 54 69 92 93 82 68 85 64 56 66 47 50 52 48 41 42 44 40 83 76 78 71 77 78 77
77 74 86 89 86 116 116 106 56 114 109 113 101 81 92 80 112 112 97 97 85 66 88 58 94 74 56 51 50 53 53 49 47 47 50 47 80 82 76 77 80 84 78
72 72 73 74 74 84 83 60 117 118 117 117 105 98 94 74 59 110 81 77 68 90 87 89 73 59 48 56 54 53 55 52 50 49 51 56 54 86 89 83 79 78 91
Wind_Direction
258 270 256 269 264 279 279 277 276 280 281 279 284 284 285 290 294 294 299 297 323 317 314 325 312 307 327 307 326 331 329 344 347 2 356 23 354 352 359 349 153 158 172
268 259 264 268 273 272 272 273 273 274 278 277 281 279 283 291 290 295 294 296 301 304 299 307 332 334 301 308 349 358 356 338 350 354 354 353 358 353 3 356 195 148 158
264 264 266 272 267 265 275 273 274 275 275 275 278 278 282 280 288 289 291 297 296 299 294 295 305 299 319 317 354 329 339 345 339 349 350 11 357 23 2 360 46 144 155
257 257 268 259 264 263 276 275 277 270 273 280 284 283 283 283 291 295 290 298 298 298 302 303 300 297 307 314 309 318 351 324 343 2 355 348 6 355 31 12 66 126 145
259 258 259 262 262 263 278 281 275 274 283 283 277 284 289 279 291 290 288 289 292 291 287 294 300 303 316 307 319 325 337 346 335 336 348 350 3 358 57 4 40 24 135
259 259 260 265 265 264 270 273 268 279 281 275 278 285 284 283 284 287 291 293 294 292 300 306 302 299 310 311 306 303 321 315 346 321 345 347 17 13 16 18 77 23 112
257 261 262 264 266 269 273 274 275 276 278 280 281 278 278 280 281 281 284 286 287 287 280 299 294 297 299 303 293 310 309 326 332 330 333 345 348 18 8 33 77 24 78
260 262 263 263 267 268 269 270 274 276 278 281 283 283 282 282 281 281 283 286 289 293 295 299 299 302 295 313 317 320 277 319 317 320 322 336 350 352 9 29 53 61 25
256 262 266 265 268 271 271 271 272 273 275 278 280 281 281 283 283 280 281 283 286 289 292 295 296 299 303 306 310 317 316 326 312 317 327 340 338 15 12 36 28 82 90
261 259 261 264 266 266 266 267 267 268 269 272 275 278 280 281 279 282 285 283 286 287 290 292 293 295 298 300 302 307 311 313 321 313 313 327 19 2 27 20 38 43 71
262 259 265 262 258 258 260 264 266 267 269 270 276 279 282 282 278 282 278 280 282 281 282 285 288 291 292 294 294 295 298 302 296 316 313 312 291 310 86 355 24 34 48
255 259 259 264 264 265 268 267 263 263 266 267 269 271 276 276 280 281 280 283 282 280 284 286 286 283 288 290 291 291 290 284 283 291 308 285 275 291 254 311 321 24 43
254 256 259 258 259 259 263 262 265 272 269 272 274 271 285 285 284 284 286 287 281 282 283 281 284 287 283 282 281 280 279 277 272 265 267 274 275 271 271 218 280 108 39
264 266 261 266 261 265 272 272 273 273 271 273 280 278 277 278 281 283 282 281 281 281 282 282 282 282 279 280 279 273 272 270 263 247 248 253 255 253 250 240 267 256 265
258 258 259 266 256 261 262 265 267 271 275 277 269 276 276 276 278 280 280 281 282 286 286 286 282 280 279 276 275 272 269 264 258 251 238 241 243 238 265 236 250 220 255
246 255 261 254 259 256 261 265 263 263 266 271 273 271 273 278 278 280 278 280 282 281 278 291 284 291 294 275 282 275 282 260 257 249 241 239 236 233 224 218 226 244 220
257 256 274 261 267 265 256 275 276 266 262 282 274 272 272 278 275 280 275 284 291 293 254 292 294 297 303 301 268 278 277 262 256 254 240 236 242 227 226 227 247 228 226
254 255 261 266 261 269 268 262 259 261 269 257 291 278 278 276 283 284 281 289 285 299 275 294 299 302 290 313 299 296 303 274 264 248 242 233 234 234 228 224 231 241 229
245 263 257 251 265 269 264 263 283 284 269 275 282 283 278 271 285 294 287 294 299 266 277 298 279 277 311 317 293 288 305 271 258 255 221 237 232 231 234 228 228 237 234
227 253 246 251 263 262 262 287 283 271 282 293 283 264 286 279 275 287 295 293 302 282 280 309 309 281 303 311 292 289 278 279 263 247 235 218 223 237 231 233 233 240 237
238 248 255 245 245 258 268 267 271 278 274 283 277 282 282 287 293 285 275 268 300 299 300 300 307 289 313 312 298 277 272 275 264 255 230 210 229 231 233 231 233 232 226
239 257 262 274 266 271 275 295 265 274 268 277 276 279 275 269 280 290 296 293 274 300 292 306 290 304 299 296 302 286 272 269 266 255 267 212 228 218 215 221 240 226 230
229 259 246 263 247 248 265 263 264 262 277 271 272 274 263 269 269 284 286 291 292 301 299 302 304 289 269 279 299 275 269 266 263 249 250 221 246 221 213 220 221 226 217
244 234 233 238 243 268 249 256 257 260 266 275 273 269 274 275 283 284 271 292 294 297 298 303 306 286 292 298 270 271 268 263 260 259 244 247 214 221 226 223 215 221 225
229 234 237 240 244 242 244 249 253 258 262 265 269 269 278 279 277 279 289 286 286 279 300 281 303 297 288 273 269 267 265 267 265 263 235 237 218 218 225 222 215 216 217
230 235 237 242 246 250 249 251 248 252 256 259 262 265 269 273 274 279 279 282 282 291 294 294 295 285 267 277 272 270 268 266 263 257 249 231 232 221 220 223 217 219 215